Live-Position
3D-Globus wird geladen...
Über OneWeb SL0663
Group: 3 satellites
Beschreibung wird geladen...
Nächste Überflüge
Passes for default location (London). Set your location on the main map for personalized predictions.
Höhenverlauf
Loading altitude history...
No altitude history available
Zweizeiliger Elementsatz
1 55823U 23029AD 26125.43862656 .00000036 00000-0 56742-4 0 9992
2 55823 87.9155 283.0299 0001947 82.9770 277.1584 13.20866601155500
Epoch: 5. Mai 2026 •
Age: 10 hours
Aktueller Status
Höhe 1190.0 km
Geschwindigkeit 7.26 km/s
Subsatellitenpunkt 57.29°N,
67.54°W
Startdatum 9. März 2023
Alter 3.1 years
Typ internet
Startgruppe
Unknown Vehicle •
OneWeb Launch 17 •
40 satellites
OneWeb SL0530
55796
OneWeb SL0534 55797
OneWeb SL0556 55798
OneWeb SL0562 55799
OneWeb SL0563 55800
OneWeb SL0564 55801
OneWeb SL0638 55802
OneWeb SL0639 55803
OneWeb SL0640 55804
OneWeb SL0641 55805
OneWeb SL0642 55806
OneWeb SL0643 55807
OneWeb SL0644 55808
OneWeb SL0645 55809
OneWeb SL0646 55810
OneWeb SL0648 55811
OneWeb SL0649 55812
OneWeb SL0650 55813
OneWeb SL0652 55814
OneWeb SL0653 55815
...and 19 more
Technische Details
Klassifizierung Payload
Masse 148.00 kg
Trockenmasse 140.00 kg
Gesamtmasse 148.00 kg
Länge 1.30 m
Durchmesser 1.00 m
Spannweite 5.00 m
Form Trapezoid+2 pan
Hersteller ONEWUS
Bus-Typ ARROW
Phasenstatus In Orbit
Besitzer/Staat ONEWEBN/UK
Most Searched
Loading...